Location: Newark
(41.8106°N, 83.4933°W)
Time: 23:12:19
(UTC+00:00)

OTV 5 (USA 277) - Visible Passes

Search period start: 13 October 2019 00:00
Search period end: 23 October 2019 00:00
Orbit: 310 x 324 km, 54.5° (Epoch: 08 October)

Date Brightness Start Highest point End Pass type
(mag) Time Alt. Az. Time Alt. Az. Time Alt. Az.
14 Oct ? 11:15:28 10° NNW 11:17:13 15° NNE 11:18:58 10° ENE visible
16 Oct ? 10:10:53 11° N 10:11:53 12° NNE 10:13:04 10° NE visible
17 Oct ? 10:25:13 14° NNW 10:26:44 20° NNE 10:28:53 10° E visible
18 Oct ? 10:39:38 17° NNW 10:41:27 43° NE 10:44:05 10° ESE visible
19 Oct ? 10:54:09 18° WNW 10:56:01 61° SW 10:58:43 10° SE visible
20 Oct ? 09:37:53 16° E 09:37:53 16° E 09:38:40 10° E visible
20 Oct ? 11:08:49 13° W 11:10:26 20° SW 11:12:33 10° S visible
21 Oct ? 09:52:41 19° ESE 09:52:41 19° ESE 09:53:35 10° SE visible
22 Oct ? 10:07:36 12° SSE 10:07:36 12° SSE 10:07:52 10° SSE visible
